Regional Weather Roundup
Issued by NWS

Home | Current Version | Previous Version | Graphics & Text | Print | Product List | Glossary On
Versions: 1 2 3 4 5 6 7 8 9 10 11 12 13 14 15 16 17 18 19 20 21 22 23 24 25 26 27 28 29 30 31 32 33 34 35 36 37 38 39 40 41 42 43 44 45 46 47 48 49 50
000
ASUS43 KOAX 271102
RWRNE

WEATHER ROUNDUP FOR NEBRASKA
NATIONAL WEATHER SERVICE OMAHA NE
600 AM CDT WED AUG 27 2014

NOTES: SATELLITE DATA IS BEING USED TO AUGMENT CLOUD COVER ABOVE
       12000 FEET.
       "FAIR" INDICATES FEW OR NO CLOUDS BELOW 12,000 FEET WITH NO
       SIGNIFICANT WEATHER AND/OR OBSTRUCTIONS TO VISIBILITY.

  * THESE STATIONS DO NOT REPORT WEATHER SUCH AS RAIN...SNOW OR FOG.

NEZ001>004-019>022-054>056-271200-
NEBRASKA PANHANDLE

CITY           SKY/WX    TMP DP  RH WIND       PRES   REMARKS
SCOTTSBLUFF    MOCLDY    61  60  97 CALM      30.12F
ALLIANCE       MOCLDY    62  61  96 E3        30.11F
CHADRON        CLOUDY    62  58  86 E3        30.12F
KIMBALL        CLOUDY    62  62  99 CALM      30.14F FOG
SIDNEY         PTCLDY    63  57  81 S5        30.13F
$$

NEZ057>060-069>072-079>082-271200-
SOUTHWEST NEBRASKA

CITY           SKY/WX    TMP DP  RH WIND       PRES   REMARKS
NORTH PLATTE   CLOUDY    66  64  93 SE3       30.04F
IMPERIAL       MOCLDY    64  62  93 CALM      30.11F
LEXINGTON      CLOUDY    68  67  96 S8        30.08S
MCCOOK         CLOUDY    66  65  96 SE7       30.10S
OGALLALA       CLOUDY    62  61  96 CALM      30.10F
$$

NEZ005>010-023>029-035>040-094-271200-
NORTH CENTRAL NEBRASKA

CITY           SKY/WX    TMP DP  RH WIND       PRES   REMARKS
VALENTINE      CLOUDY    68  67  96 SE6       30.12S
AINSWORTH      HVY RAIN  66  65  96 SE6       30.11F
BROKEN BOW     CLOUDY    69  67  93 E5        30.10S FOG
O`NEILL        CLOUDY    67  65  96 SE10      30.10F
ORD            CLOUDY    67  66  97 CALM      30.10F FOG
THEDFORD       CLOUDY    68  67  98 CALM      30.11F
$$

NEZ041-046>049-061>064-073>077-083>087-271200-
SOUTH CENTRAL NEBRASKA

CITY           SKY/WX    TMP DP  RH WIND       PRES   REMARKS
GRAND ISLAND   LGT RAIN  69  66  90 W9        30.13S
AURORA         TSTM      68  68 100 W3        30.12R
HASTINGS       LGT RAIN  68  65  90 NW7       30.12S
HEBRON         TSTM      69  66  89 CALM      30.08R
HOLDREGE       LGT RAIN  67  65  95 CALM      30.08F
KEARNEY *      CLOUDY    66  64  94 SE7       30.12F
YORK           CLOUDY    68 N/A N/A SW7       30.11R
$$

NEZ011>018-030>034-042>045-271200-
NORTHEAST NEBRASKA

CITY           SKY/WX    TMP DP  RH WIND       PRES   REMARKS
NORFOLK        CLOUDY    65  63  93 E8        30.10F
ALBION         CLOUDY    66  63  90 E3        30.10S
BLAIR          MOCLDY    67  65  91 E9        30.10R
FREMONT        CLOUDY    67  65  93 NE3       30.11R
TEKAMAH        CLOUDY    66  63  90 N9        30.12R
WAYNE          CLOUDY    63  62  95 CALM      30.12F
$$

NEZ050>053-065>068-078-088>093-271200-
SOUTHEAST NEBRASKA

CITY           SKY/WX    TMP DP  RH WIND       PRES   REMARKS
LINCOLN        CLOUDY    69  66  90 E3        30.08S
OMAHA EPPLEY   MOCLDY    68  64  87 VRB6      30.09R
BEATRICE       CLOUDY    69  68  98 E5        30.08R
FALLS CITY     CLOUDY    72  67  84 E8G17     30.09R
NEBRASKA CITY  MOCLDY    69  69 100 CALM      30.08S
PLATTSMOUTH    HVY RAIN  68  66  93 E5        30.09R
$$

NEZ044-045-051>053-067-271200-
OMAHA AREA

CITY           SKY/WX    TMP DP  RH WIND       PRES   REMARKS
OMAHA EPPLEY   MOCLDY    68  64  87 VRB6      30.09R
BLAIR          MOCLDY    67  65  91 E9        30.10R
FREMONT        CLOUDY    67  65  93 NE3       30.11R
MILLARD        MOCLDY    70  65  85 CALM      30.09R
OFFUTT AFB     MOCLDY    67  67 100 E8        30.09R
PLATTSMOUTH    HVY RAIN  68  66  93 E5        30.09R
WAHOO          CLOUDY    66  64  92 N5        30.08R
$$


USA.gov is the U.S. government's official web portal to all federal, state and local government web resources and services.